Date,TemperatureHighF,TemperatureAvgF,TemperatureLowF,DewpointHighF,DewpointAvgF,DewpointLowF,HumidityHigh,HumidityAvg,HumidityLow,PressureMaxIn,PressureMinIn,WindSpeedMaxMPH,WindSpeedAvgMPH,GustSpeedMaxMPH,PrecipitationSumIn
2013-3-1,45.9,40.1,37.2,31.3,29.2,26.2,76,65,51,29.16,29.04,0,0,0,0.00
2013-3-2,35.8,31.6,30.4,20.8,20.2,19.6,67,62,52,29.18,29.13,0,0,0,0.00
2013-3-3,41.9,33.6,29.3,22.8,20.5,18.1,72,59,46,29.22,29.12,0,0,0,0.00
2013-3-4,45.0,33.5,26.4,20.4,18.1,15.2,62,53,37,29.34,29.22,0,0,0,0.00
2013-3-5,51.3,38.5,27.3,28.3,21.3,17.9,68,52,29,29.39,29.15,0,0,0,0.00
2013-3-6,36.9,35.1,32.9,34.8,32.6,30.1,93,90,78,29.32,29.00,0,0,0,0.54
2013-3-7,50.7,40.9,33.6,30.4,28.8,26.9,83,63,44,29.47,29.33,0,0,0,0.00
2013-3-8,52.3,40.9,35.1,30.5,27.3,24.9,74,59,43,29.59,29.45,0,0,0,0.00
2013-3-9,65.8,44.2,30.0,28.8,24.2,21.8,72,49,22,29.67,29.57,0,0,0,0.00
2013-3-10,65.8,47.1,28.9,31.6,25.3,18.4,83,49,20,29.63,29.52,0,0,0,0.00
2013-3-11,63.0,51.2,40.5,48.0,41.2,22.7,88,70,43,29.53,29.24,0,0,0,0.00
2013-3-12,57.0,51.9,40.6,53.2,43.9,29.8,93,75,53,29.28,29.07,0,0,0,1.43
2013-3-13,52.0,40.1,32.7,31.0,25.5,19.2,75,57,34,29.38,29.22,0,0,0,0.00
2013-3-14,46.6,36.9,30.7,19.4,17.6,15.8,59,46,30,29.41,29.33,0,0,0,0.00
2013-3-15,57.7,44.5,30.7,33.9,25.3,17.2,66,48,31,29.39,29.10,0,0,0,0.00
2013-3-16,50.9,42.5,35.4,36.2,33.7,31.6,87,72,56,29.26,29.00,0,0,0,0.00
2013-3-17,42.4,37.5,34.7,31.5,27.8,23.3,87,69,51,29.57,29.25,0,0,0,0.00
2013-3-18,39.0,35.0,32.9,31.6,26.8,20.7,93,73,56,29.62,29.21,0,0,0,0.19
2013-3-19,59.9,43.1,32.9,43.5,29.1,13.3,94,65,22,29.22,29.03,0,0,0,0.11
2013-3-20,53.4,41.3,31.5,24.9,17.9,14.6,61,40,23,29.30,29.08,0,0,0,0.00
2013-3-21,38.7,32.8,27.0,24.1,14.5,8.6,63,47,32,29.20,29.09,0,0,0,0.00
2013-3-22,47.8,35.5,25.9,20.2,17.5,12.7,62,49,33,29.31,29.18,0,0,0,0.00
2013-3-23,55.0,40.0,28.2,25.8,22.1,18.6,72,50,29,29.34,29.24,0,0,0,0.00
2013-3-24,45.5,37.1,27.5,29.2,23.5,18.6,76,59,42,29.31,28.98,0,0,0,0.00
2013-3-25,42.8,35.9,32.2,36.4,31.7,29.5,91,85,77,29.01,28.85,0,0,0,0.30
2013-3-26,52.3,41.0,31.3,36.1,30.6,28.0,92,70,41,29.30,29.02,0,0,0,0.00
2013-3-27,51.6,42.5,36.9,32.5,28.5,25.4,69,58,40,29.42,29.30,0,0,0,0.00
2013-3-28,49.3,43.2,37.4,33.0,29.4,25.8,71,59,40,29.53,29.39,0,0,0,0.00
2013-3-29,57.0,46.9,38.7,33.3,29.0,26.0,65,51,35,29.56,29.46,0,0,0,0.00
2013-3-30,63.5,46.5,31.5,33.7,26.4,20.8,85,51,20,29.54,29.43,0,0,0,0.00
2013-3-31,51.1,45.5,38.7,45.2,38.0,25.6,92,76,58,29.43,29.07,0,0,0,0.11